Date String (YYYY-MM-DD hh:mm:ss) UTC,Instrument flags,Ambient pressure (hPa),Sample flow (lpm),Bypass flow (lpm),Sample temperature (°C),Ambient temperature (°C),ASC tube jacket temperature (°C),LED temperature (°C),Box temperature (°C),Sample RH (%),Span deviation,Mass concentration (μg/m³),Mass concentration (μg/m³),Mass concentration (μg/m³)
DateTimeUTC,F1_M11,P_M11,Q1_M11,Q2_M11,T1_M11,T2_M11,T3_M11,T4_M11,T5_M11,U1_M11,ZSPAN_M11,X0_M11,X2_M11,X1_M11
2023-02-21 00:00:00,,0817.5,5.00,0.00,22.1,20.7,00.0,31.0,23.9,13.0,0000.0,0001.51,0000.72,0000.38
2023-02-21 00:01:00,,0817.5,4.99,0.00,22.1,20.7,00.0,31.0,23.9,12.9,0000.0,0001.57,0000.75,0000.38
2023-02-21 00:02:00,,0817.6,4.99,0.00,22.1,20.7,00.0,31.0,23.9,12.9,0000.0,0001.58,0000.76,0000.38
2023-02-21 00:03:00,,0817.7,5.01,0.00,22.1,20.7,00.0,31.0,23.9,12.8,0000.0,0001.62,0000.76,0000.38
2023-02-21 00:04:00,,0817.8,5.01,0.00,22.1,20.6,00.0,31.0,23.9,12.8,0000.0,0001.47,0000.71,0000.38
2023-02-21 00:05:00,,0817.7,5.00,0.00,22.1,20.6,00.0,31.0,23.9,12.9,0000.0,0001.37,0000.68,0000.37
2023-02-21 00:06:00,,0817.6,5.01,0.00,22.1,20.6,00.0,31.0,23.9,13.0,0000.0,0001.54,0000.72,0000.37
2023-02-21 00:07:00,,0817.6,5.02,0.00,22.1,20.7,00.0,31.0,23.9,12.8,0000.0,0001.52,0000.70,0000.37
2023-02-21 00:08:00,,0817.5,5.01,0.00,22.1,20.7,00.0,31.0,23.9,12.7,0000.0,0001.50,0000.69,0000.37
2023-02-21 00:09:00,,0817.5,5.00,0.00,22.1,20.7,00.0,31.0,23.9,12.6,0000.0,0001.55,0000.69,0000.36
2023-02-21 00:10:00,,0817.6,5.00,0.00,22.1,20.8,00.0,31.0,24.0,12.6,0000.0,0001.63,0000.72,0000.37
2023-02-21 00:11:00,,0817.6,4.99,0.00,22.1,20.8,00.0,31.0,24.0,12.8,0000.0,0001.58,0000.70,0000.38
2023-02-21 00:12:00,,0817.7,5.00,0.00,22.1,20.9,00.0,31.0,24.0,12.8,0000.0,0001.54,0000.67,0000.38
2023-02-21 00:13:00,,0817.8,5.00,0.00,22.1,20.9,00.0,31.0,24.0,12.7,0000.0,0001.55,0000.68,0000.38
2023-02-21 00:14:00,,0817.8,5.01,0.00,22.1,20.9,00.0,31.0,24.0,12.9,0000.0,0001.51,0000.68,0000.38
2023-02-21 00:15:00,,0817.7,5.01,0.00,22.1,20.9,00.0,31.0,24.0,13.0,0000.0,0001.53,0000.69,0000.38
2023-02-21 00:16:00,,0817.6,5.02,0.00,22.2,20.8,00.0,31.0,24.0,12.9,0000.0,0001.48,0000.67,0000.38
2023-02-21 00:17:00,,0817.6,4.99,0.00,22.2,20.9,00.0,31.0,24.0,12.6,0000.0,0001.27,0000.62,0000.37
2023-02-21 00:18:00,,0817.6,5.00,0.00,22.2,20.8,00.0,31.0,24.0,12.6,0000.0,0001.13,0000.61,0000.38
2023-02-21 00:19:00,,0817.6,5.02,0.00,22.2,20.8,00.0,31.0,24.0,12.6,0000.0,0001.19,0000.63,0000.38
2023-02-21 00:20:00,,0817.7,5.00,0.00,22.2,20.8,00.0,31.0,24.0,12.6,0000.0,0001.12,0000.63,0000.38
2023-02-21 00:21:00,,0817.6,5.00,0.00,22.2,20.8,00.0,31.0,24.1,12.7,0000.0,0001.00,0000.60,0000.38
2023-02-21 00:22:00,,0817.7,5.00,0.00,22.2,20.8,00.0,31.0,24.1,12.9,0000.0,0000.93,0000.57,0000.37
2023-02-21 00:23:00,,0817.8,4.99,0.00,22.2,20.8,00.0,31.1,24.0,13.1,0000.0,0000.90,0000.56,0000.38
2023-02-21 00:24:00,,0817.8,5.02,0.00,22.2,20.8,00.0,31.1,24.0,13.1,0000.0,0001.15,0000.58,0000.38
2023-02-21 00:25:00,,0817.7,5.01,0.00,22.2,20.8,00.0,31.1,24.1,13.0,0000.0,0001.17,0000.57,0000.37
2023-02-21 00:26:00,,0817.8,5.02,0.00,22.2,20.8,00.0,31.1,24.1,12.7,0000.0,0001.22,0000.57,0000.37
2023-02-21 00:27:00,,0817.7,4.99,0.00,22.2,20.8,00.0,31.1,24.0,12.8,0000.0,0001.21,0000.58,0000.37
2023-02-21 00:28:00,,0817.7,4.99,0.00,22.2,20.8,00.0,31.1,24.0,12.9,0000.0,0001.25,0000.59,0000.38
2023-02-21 00:29:00,,0817.6,4.99,0.00,22.2,20.8,00.0,31.1,24.0,12.9,0000.0,0001.30,0000.61,0000.38
2023-02-21 00:30:00,,0817.6,5.00,0.00,22.2,20.8,00.0,31.1,24.0,12.8,0000.0,0001.33,0000.62,0000.38
2023-02-21 00:31:00,,0817.5,5.00,0.00,22.2,20.8,00.0,31.1,24.0,12.9,0000.0,0001.40,0000.65,0000.38
2023-02-21 00:32:00,,0817.5,4.99,0.00,22.2,20.7,00.0,31.1,24.0,12.9,0000.0,0001.44,0000.66,0000.38
2023-02-21 00:33:00,,0817.5,5.00,0.00,22.2,20.7,00.0,31.1,24.0,12.7,0000.0,0001.47,0000.68,0000.39
2023-02-21 00:34:00,,0817.5,4.98,0.00,22.1,20.7,00.0,31.1,23.9,12.5,0000.0,0001.47,0000.68,0000.39
2023-02-21 00:35:00,,0817.5,5.00,0.00,22.1,20.7,00.0,31.1,24.0,12.6,0000.0,0001.23,0000.66,0000.40
2023-02-21 00:36:00,,0817.6,5.01,0.00,22.1,20.7,00.0,31.1,24.0,12.8,0000.0,0001.20,0000.66,0000.40
2023-02-21 00:37:00,,0817.5,5.01,0.00,22.1,20.7,00.0,31.1,24.0,12.7,0000.0,0001.21,0000.68,0000.41
2023-02-21 00:38:00,,0817.5,5.01,0.00,22.1,20.6,00.0,31.1,24.0,12.8,0000.0,0001.25,0000.70,0000.41
2023-02-21 00:39:00,,0817.5,5.02,0.00,22.2,20.6,00.0,31.1,24.0,12.8,0000.0,0001.26,0000.70,0000.40
2023-02-21 00:40:00,,0817.5,4.99,0.00,22.2,20.6,00.0,31.1,24.0,12.8,0000.0,0001.23,0000.69,0000.41
2023-02-21 00:41:00,,0817.6,5.00,0.00,22.2,20.6,00.0,31.1,24.0,12.8,0000.0,0001.15,0000.66,0000.41
2023-02-21 00:42:00,,0817.6,5.01,0.00,22.2,20.6,00.0,31.1,24.0,12.9,0000.0,0001.03,0000.61,0000.40
2023-02-21 00:43:00,,0817.6,4.98,0.00,22.1,20.6,00.0,31.0,24.0,12.6,0000.0,0000.96,0000.58,0000.40
2023-02-21 00:44:00,,0817.7,5.00,0.00,22.1,20.5,00.0,31.1,23.9,12.5,0000.0,0001.02,0000.59,0000.40
2023-02-21 00:45:00,,0817.8,5.00,0.00,22.1,20.5,00.0,31.0,23.9,12.7,0000.0,0001.02,0000.59,0000.39
2023-02-21 00:46:00,,0817.9,5.00,0.00,22.1,20.5,00.0,31.0,23.9,12.7,0000.0,0001.00,0000.58,0000.39
2023-02-21 00:47:00,,0817.7,4.99,0.00,22.1,20.5,00.0,31.0,23.9,12.4,0000.0,0001.09,0000.62,0000.38
2023-02-21 00:48:00,,0817.8,5.00,0.00,22.1,20.5,00.0,31.0,23.9,12.3,0000.0,0001.02,0000.60,0000.38
2023-02-21 00:49:00,,0817.7,4.99,0.00,22.1,20.6,00.0,31.0,23.9,12.5,0000.0,0000.95,0000.57,0000.38
2023-02-21 00:50:00,,0817.5,5.02,0.00,22.1,20.6,00.0,31.0,23.9,12.4,0000.0,0000.89,0000.55,0000.38
2023-02-21 00:51:00,,0817.5,5.02,0.00,22.1,20.6,00.0,31.0,23.9,12.5,0000.0,0000.90,0000.55,0000.38
2023-02-21 00:52:00,,0817.5,4.99,0.00,22.1,20.6,00.0,31.0,23.9,12.3,0000.0,0000.90,0000.54,0000.37
2023-02-21 00:53:00,,0817.6,5.02,0.00,22.1,20.5,00.0,31.0,23.8,12.5,0000.0,0000.91,0000.54,0000.36
2023-02-21 00:54:00,,0817.5,5.01,0.00,22.1,20.5,00.0,31.0,23.8,12.4,0000.0,0000.90,0000.54,0000.35
2023-02-21 00:55:00,,0817.4,5.00,0.00,22.1,20.5,00.0,31.0,23.8,12.3,0000.0,0000.83,0000.51,0000.35
2023-02-21 00:56:00,,0817.4,4.99,0.00,22.0,20.5,00.0,31.0,23.8,12.7,0000.0,0000.83,0000.51,0000.35
2023-02-21 00:57:00,,0817.3,4.99,0.00,22.0,20.4,00.0,31.0,23.8,12.7,0000.0,0000.83,0000.51,0000.35
2023-02-21 00:58:00,,0817.3,5.01,0.00,22.0,20.4,00.0,31.0,23.7,12.7,0000.0,0000.79,0000.48,0000.35
2023-02-21 00:59:00,,0817.4,4.99,0.00,22.0,20.3,00.0,31.0,23.7,12.7,0000.0,0000.92,0000.53,0000.35
